Total_Precipitation_Accumulation
1.54 1.45 1.35 1.23 1.21 1.24 1.26 1.33 1.48 1.40 1.12 0.85 0.79 0.83 0.89 0.93 1.05 1.02 0.96 1.15 1.18 1.19 1.23 1.26 1.27 1.21 1.17 1.20 1.28 1.36 1.43 1.49 1.56 1.62 1.64 1.62 1.66 1.77
1.42 1.43 1.38 1.28 1.23 1.24 1.29 1.35 1.44 1.50 1.34 0.97 0.84 0.85 0.98 1.07 1.22 1.11 1.02 1.21 1.18 1.17 1.19 1.16 1.12 1.08 1.05 1.05 1.08 1.17 1.23 1.26 1.33 1.46 1.59 1.66 1.74 1.87
1.33 1.36 1.38 1.34 1.34 1.32 1.36 1.41 1.48 1.56 1.55 1.23 1.01 0.96 1.01 1.05 1.09 1.04 0.99 1.01 1.01 1.12 1.06 1.01 0.98 0.96 0.94 0.91 0.92 0.96 1.04 1.11 1.17 1.27 1.40 1.52 1.57 1.61
1.25 1.30 1.33 1.34 1.38 1.39 1.43 1.45 1.46 1.47 1.48 1.37 1.13 1.00 0.95 0.92 0.93 0.93 0.90 0.86 0.83 0.97 0.95 0.90 0.87 0.88 0.89 0.86 0.83 0.84 0.91 0.99 1.04 1.09 1.14 1.21 1.27 1.32
1.08 1.13 1.14 1.21 1.27 1.30 1.35 1.38 1.36 1.35 1.34 1.27 1.08 0.92 0.86 0.85 0.91 0.90 0.85 0.79 0.73 0.79 0.84 0.82 0.77 0.78 0.82 0.81 0.79 0.78 0.75 0.75 0.78 0.82 0.90 1.00 1.09 1.15
0.96 1.00 1.03 1.08 1.13 1.18 1.26 1.30 1.29 1.29 1.29 1.28 1.17 1.00 0.87 0.81 0.83 0.85 0.83 0.76 0.69 0.65 0.77 0.77 0.76 0.76 0.75 0.69 0.63 0.62 0.62 0.64 0.70 0.76 0.82 0.87 0.93 1.01
0.97 1.01 1.07 1.19 1.20 1.15 1.14 1.13 1.15 1.21 1.24 1.24 1.14 1.00 0.87 0.80 0.79 0.74 0.74 0.76 0.76 0.69 0.71 0.72 0.69 0.69 0.71 0.71 0.68 0.62 0.61 0.65 0.70 0.75 0.82 0.89 0.92 0.96
1.00 0.99 1.03 1.15 1.13 1.11 1.06 1.02 1.05 1.13 1.17 1.12 1.00 0.86 0.70 0.61 0.63 0.70 0.76 0.85 0.87 0.68 0.68 0.72 0.68 0.71 0.69 0.68 0.73 0.67 0.64 0.67 0.70 0.74 0.77 0.81 0.84 0.88
0.97 0.96 0.91 0.88 0.92 0.82 0.87 0.93 0.94 0.95 0.92 0.88 0.85 0.72 0.62 0.58 0.68 0.81 0.82 0.81 0.72 0.59 0.67 0.81 0.76 0.73 0.65 0.67 0.75 0.70 0.69 0.71 0.72 0.71 0.71 0.73 0.78 0.81
0.82 0.81 0.76 0.71 0.70 0.72 0.74 0.79 0.71 0.66 0.67 0.63 0.62 0.59 0.59 0.63 0.74 0.86 0.91 0.94 0.84 0.74 0.74 0.85 0.75 0.70 0.63 0.63 0.71 0.68 0.68 0.71 0.74 0.75 0.75 0.75 0.76 0.79
0.64 0.63 0.63 0.61 0.69 0.79 0.73 0.68 0.61 0.58 0.63 0.66 0.68 0.68 0.75 0.82 0.86 0.94 1.03 1.13 1.04 0.79 0.67 0.68 0.64 0.61 0.61 0.62 0.65 0.71 0.68 0.68 0.70 0.74 0.77 0.80 0.79 0.79
0.45 0.46 0.53 0.55 0.67 0.75 0.68 0.66 0.62 0.52 0.51 0.56 0.59 0.59 0.58 0.64 0.78 0.79 0.87 1.13 1.05 0.80 0.51 0.56 0.60 0.69 0.87 0.64 0.57 0.61 0.66 0.70 0.68 0.68 0.70 0.75 0.83 0.85
0.43 0.41 0.43 0.55 0.61 0.66 0.68 0.60 0.59 0.61 0.57 0.55 0.57 0.57 0.57 0.58 0.61 0.62 0.68 0.97 1.17 0.91 0.47 0.70 0.92 0.80 0.97 0.74 0.54 0.53 0.55 0.62 0.67 0.68 0.68 0.70 0.78 0.93
0.43 0.40 0.43 0.57 0.64 0.64 0.62 0.60 0.67 0.71 0.62 0.63 0.64 0.61 0.57 0.55 0.53 0.53 0.58 0.64 0.75 0.78 0.59 0.86 1.28 1.05 1.17 0.97 0.61 0.50 0.53 0.56 0.62 0.66 0.67 0.79 0.85 0.91
0.45 0.48 0.53 0.59 0.61 0.59 0.59 0.62 0.63 0.59 0.59 0.61 0.58 0.52 0.49 0.51 0.57 0.64 0.67 0.67 0.68 0.66 0.64 0.68 0.93 1.04 1.29 1.28 0.84 0.55 0.56 0.60 0.60 0.67 0.74 0.79 0.85 0.94
0.53 0.53 0.56 0.57 0.57 0.55 0.56 0.56 0.54 0.53 0.58 0.60 0.57 0.55 0.59 0.65 0.68 0.69 0.76 0.76 0.82 0.73 0.64 0.60 0.68 0.99 1.26 1.01 0.98 0.81 0.64 0.70 0.66 0.72 0.80 0.78 0.75 0.82
0.64 0.61 0.57 0.53 0.51 0.50 0.49 0.49 0.50 0.53 0.58 0.57 0.63 0.67 0.67 0.68 0.68 0.67 0.76 0.83 0.86 0.69 0.61 0.60 0.63 0.74 0.90 0.97 0.99 0.75 0.66 0.71 0.76 0.86 0.97 0.95 0.79 0.78
0.76 0.66 0.54 0.48 0.46 0.46 0.48 0.50 0.51 0.53 0.55 0.61 0.67 0.71 0.74 0.75 0.72 0.69 0.75 0.84 0.83 0.67 0.61 0.61 0.72 0.90 0.90 0.78 0.71 0.71 0.73 0.77 0.77 0.83 0.96 1.15 0.94 0.76
0.69 0.55 0.48 0.46 0.45 0.47 0.50 0.54 0.54 0.52 0.58 0.67 0.73 0.76 0.81 0.83 0.82 0.81 0.79 0.83 0.80 0.70 0.64 0.65 0.83 1.24 1.34 0.85 0.52 0.54 0.78 0.87 0.86 0.92 0.98 1.15 1.19 0.91
0.50 0.45 0.45 0.46 0.50 0.54 0.57 0.59 0.60 0.61 0.65 0.68 0.71 0.77 0.86 0.93 0.91 0.83 0.81 0.84 0.86 0.79 0.72 0.66 0.73 1.09 1.54 1.27 0.91 0.55 0.56 0.83 1.15 1.26 1.05 0.94 0.94 0.87
0.43 0.42 0.46 0.52 0.57 0.61 0.63 0.66 0.71 0.72 0.71 0.76 0.78 0.79 0.86 1.00 0.96 0.82 0.83 0.83 0.90 0.91 0.83 0.64 0.56 0.72 1.14 1.53 1.28 0.69 0.57 0.64 0.95 1.39 1.44 1.37 1.12 0.88
0.50 0.51 0.51 0.56 0.62 0.67 0.70 0.73 0.77 0.76 0.78 0.83 0.83 0.84 0.87 0.99 1.01 0.91 0.90 0.95 0.89 0.83 0.79 0.70 0.69 0.83 1.13 1.45 1.13 0.68 0.59 0.62 0.69 0.77 1.06 1.61 2.12 1.91
0.59 0.60 0.60 0.63 0.68 0.74 0.77 0.78 0.78 0.74 0.76 0.83 0.85 0.85 0.89 0.94 0.90 0.93 0.94 0.97 1.01 0.96 0.92 0.89 0.82 0.85 0.90 0.97 1.00 0.80 0.64 0.61 0.63 0.68 0.74 0.82 1.04 1.28